TimeEST,TemperatureF,Dew PointF,Humidity,Sea Level PressureIn,VisibilityMPH,Wind Direction,Wind SpeedMPH,Gust SpeedMPH,PrecipitationIn,Events,Conditions,WindDirDegrees,DateUTC
12:14 AM,42.8,33.8,70,30.27,10.0,South,9.2,-,N/A,,Mostly Cloudy,190,2013-11-21 05:14:00
12:34 AM,42.8,33.8,70,30.27,10.0,SSW,8.1,-,N/A,,Overcast,200,2013-11-21 05:34:00
12:54 AM,42.8,33.8,70,30.26,10.0,South,8.1,-,N/A,,Overcast,170,2013-11-21 05:54:00
1:14 AM,42.8,32.0,66,30.26,10.0,South,9.2,-,N/A,,Overcast,180,2013-11-21 06:14:00
1:34 AM,42.8,33.8,70,30.26,10.0,South,5.8,-,N/A,,Overcast,170,2013-11-21 06:34:00
1:54 AM,42.8,33.8,70,30.26,10.0,South,5.8,-,N/A,,Overcast,170,2013-11-21 06:54:00
2:14 AM,42.8,33.8,70,30.27,10.0,South,5.8,-,N/A,,Overcast,170,2013-11-21 07:14:00
2:34 AM,42.8,33.8,70,30.27,10.0,SSE,4.6,-,N/A,,Overcast,150,2013-11-21 07:34:00
2:54 AM,42.8,33.8,70,30.27,10.0,SSE,4.6,-,N/A,,Overcast,160,2013-11-21 07:54:00
3:14 AM,42.8,35.6,76,30.28,10.0,SSW,3.5,-,N/A,Rain,Rain,200,2013-11-21 08:14:00
3:34 AM,42.8,35.6,76,30.28,10.0,SE,4.6,-,N/A,,Overcast,140,2013-11-21 08:34:00
3:54 AM,42.8,35.6,76,30.27,10.0,SE,4.6,-,N/A,,Overcast,140,2013-11-21 08:54:00
4:14 AM,42.8,35.6,76,30.27,10.0,SSE,5.8,-,N/A,Rain,Light Rain,150,2013-11-21 09:14:00
4:34 AM,42.8,35.6,76,30.27,10.0,SE,4.6,-,N/A,,Overcast,140,2013-11-21 09:34:00
4:55 AM,42.8,35.6,76,30.27,10.0,SSE,5.8,-,N/A,,Overcast,160,2013-11-21 09:55:00
5:14 AM,42.8,35.6,76,30.27,10.0,SSE,5.8,-,N/A,Rain,Light Rain,150,2013-11-21 10:14:00
5:34 AM,42.8,35.6,76,30.26,10.0,SE,9.2,-,N/A,,Overcast,140,2013-11-21 10:34:00
5:54 AM,42.8,35.6,76,30.27,10.0,SSE,10.4,-,N/A,,Overcast,150,2013-11-21 10:54:00
6:14 AM,42.8,35.6,76,30.27,10.0,SSE,10.4,-,N/A,,Overcast,150,2013-11-21 11:14:00
6:34 AM,42.8,33.8,70,30.27,10.0,SSE,10.4,-,N/A,,Overcast,150,2013-11-21 11:34:00
6:54 AM,42.8,33.8,70,30.26,10.0,SE,8.1,-,N/A,,Overcast,140,2013-11-21 11:54:00
7:14 AM,42.8,33.8,70,30.26,10.0,SE,10.4,-,N/A,,Overcast,140,2013-11-21 12:14:00
7:34 AM,42.8,33.8,70,30.25,10.0,SE,10.4,-,N/A,,Overcast,140,2013-11-21 12:34:00
7:54 AM,42.8,35.6,76,30.26,10.0,SSE,12.7,16.1,N/A,,Overcast,150,2013-11-21 12:54:00
8:14 AM,42.8,35.6,76,30.26,10.0,SSE,11.5,-,N/A,,Overcast,150,2013-11-21 13:14:00
8:34 AM,42.8,37.4,81,30.27,10.0,SSE,11.5,-,N/A,,Overcast,160,2013-11-21 13:34:00
8:54 AM,44.6,37.4,76,30.27,10.0,South,15.0,-,N/A,,Overcast,180,2013-11-21 13:54:00
9:14 AM,42.8,37.4,81,30.27,10.0,South,16.1,-,N/A,,Overcast,180,2013-11-21 14:14:00
9:34 AM,42.8,37.4,81,30.27,10.0,South,12.7,-,N/A,,Overcast,190,2013-11-21 14:34:00
9:54 AM,42.8,37.4,81,30.27,10.0,South,13.8,-,N/A,,Overcast,190,2013-11-21 14:54:00
10:14 AM,42.8,39.2,87,30.28,10.0,SSW,15.0,-,N/A,,Overcast,200,2013-11-21 15:14:00
10:35 AM,42.8,39.2,87,30.28,10.0,SSW,15.0,-,N/A,,Overcast,200,2013-11-21 15:35:00
10:54 AM,42.8,39.2,87,30.29,10.0,SSW,15.0,19.6,N/A,Rain,Light Rain,200,2013-11-21 15:54:00
11:14 AM,42.8,39.2,87,30.28,10.0,SSW,11.5,-,N/A,,Overcast,200,2013-11-21 16:14:00
11:34 AM,42.8,39.2,87,30.27,7.0,South,10.4,-,N/A,Rain,Rain,190,2013-11-21 16:34:00
11:54 AM,42.8,39.2,87,30.27,7.0,South,11.5,17.3,0.01,Rain,Light Rain,190,2013-11-21 16:54:00
12:15 PM,42.8,39.2,87,30.25,7.0,South,10.4,-,N/A,,Overcast,180,2013-11-21 17:15:00
12:34 PM,42.8,41.0,93,30.26,7.0,South,11.5,-,N/A,,Overcast,190,2013-11-21 17:34:00
12:54 PM,44.6,41.0,87,30.26,7.0,South,12.7,-,N/A,,Light Drizzle,190,2013-11-21 17:54:00
1:14 PM,44.6,41.0,87,30.24,7.0,South,11.5,-,N/A,Rain,Light Rain,180,2013-11-21 18:14:00
1:34 PM,42.8,41.0,93,30.23,7.0,South,10.4,-,N/A,,Overcast,170,2013-11-21 18:34:00
1:54 PM,44.6,41.0,87,30.22,10.0,South,9.2,-,0.01,Rain,Light Rain,170,2013-11-21 18:54:00
2:14 PM,44.6,41.0,87,30.21,7.0,South,9.2,-,N/A,,Light Drizzle,180,2013-11-21 19:14:00
2:34 PM,44.6,41.0,87,30.21,7.0,South,9.2,-,N/A,,Overcast,180,2013-11-21 19:34:00
2:54 PM,44.6,41.0,87,30.21,7.0,South,6.9,-,N/A,,Overcast,170,2013-11-21 19:54:00
3:14 PM,44.6,41.0,87,30.22,4.0,South,5.8,-,N/A,Rain,Light Rain,170,2013-11-21 20:14:00
3:34 PM,42.8,41.0,93,30.21,7.0,SSE,6.9,-,0.01,,Drizzle,150,2013-11-21 20:34:00
3:54 PM,42.8,41.0,93,30.22,5.0,SSE,8.1,-,0.01,Rain,Light Rain,150,2013-11-21 20:54:00
4:14 PM,42.8,41.0,93,30.22,5.0,SSE,6.9,-,0.01,Rain,Light Rain,150,2013-11-21 21:14:00
4:34 PM,42.8,41.0,93,30.23,5.0,SSE,6.9,-,0.02,Rain,Light Rain,150,2013-11-21 21:34:00
4:54 PM,42.8,41.0,93,30.23,5.0,SSE,6.9,-,0.03,Rain,Rain,150,2013-11-21 21:54:00
5:14 PM,42.8,41.0,93,30.23,5.0,SSE,8.1,-,0.03,Rain,Light Rain,160,2013-11-21 22:14:00
5:34 PM,42.8,41.0,93,30.23,5.0,SSE,8.1,-,0.05,Rain,Light Rain,160,2013-11-21 22:34:00
5:54 PM,42.8,41.0,93,30.23,5.0,SSE,8.1,-,0.06,Rain,Light Rain,160,2013-11-21 22:54:00
6:14 PM,42.8,41.0,93,30.22,5.0,SSE,6.9,-,0.02,Rain,Rain,150,2013-11-21 23:14:00
6:34 PM,42.8,41.0,93,30.22,7.0,SSE,8.1,-,0.04,Rain,Light Rain,160,2013-11-21 23:34:00
6:54 PM,42.8,41.0,93,30.22,7.0,SSE,6.9,-,0.06,Rain,Light Rain,160,2013-11-21 23:54:00
7:14 PM,42.8,41.0,93,30.22,5.0,SSE,6.9,-,0.01,Rain,Light Rain,160,2013-11-22 00:14:00
7:34 PM,42.8,41.0,93,30.21,5.0,SSE,9.2,-,0.02,Rain,Light Rain,150,2013-11-22 00:34:00
7:54 PM,42.8,41.0,93,30.21,4.0,SSE,8.1,-,0.03,Rain,Rain,160,2013-11-22 00:54:00
8:14 PM,44.6,41.0,87,30.22,4.0,SSW,8.1,-,0.02,Rain,Rain,200,2013-11-22 01:14:00
8:35 PM,44.6,42.8,93,30.21,4.0,South,8.1,-,0.05,Rain,Light Rain,170,2013-11-22 01:35:00
8:54 PM,44.6,42.8,93,30.21,3.0,South,6.9,-,0.06,Rain,Light Rain,180,2013-11-22 01:54:00
9:14 PM,44.6,41.0,87,30.20,3.0,South,6.9,-,0.02,Rain,Light Rain,170,2013-11-22 02:14:00
9:34 PM,42.8,41.0,93,30.19,3.0,South,6.9,-,0.03,Rain,Light Rain,170,2013-11-22 02:34:00
9:54 PM,42.8,41.0,93,30.19,2.5,South,5.8,-,0.04,Rain,Light Rain,170,2013-11-22 02:54:00
10:14 PM,42.8,41.0,93,30.19,3.0,South,5.8,-,0.02,Rain,Light Rain,170,2013-11-22 03:14:00
10:34 PM,42.8,41.0,93,30.19,3.0,South,4.6,-,0.03,Rain,Light Rain,170,2013-11-22 03:34:00
10:54 PM,44.6,42.8,93,30.18,2.5,South,3.5,-,0.04,Rain,Light Rain,170,2013-11-22 03:54:00
11:14 PM,44.6,42.8,93,30.17,2.0,South,3.5,-,0.01,Rain,Light Rain,170,2013-11-22 04:14:00
11:34 PM,44.6,42.8,93,30.17,2.0,South,4.6,-,0.01,Rain,Rain,170,2013-11-22 04:34:00
11:54 PM,44.6,42.8,93,30.17,2.0,South,4.6,-,0.02,Rain,Rain,180,2013-11-22 04:54:00